Powrót do katalogu

SL-3 R/B

AktywnySSO
NORAD 14208·ROCKET BODY·🇷🇺 Russia

Wystrzelony Jul 24, 1983 z Baikonur Cosmodrome

Loading…

Następne Przeloty (najbliższe 24 godziny)

TLE

ŚwieżeSource: Space-Track

Epoka: Sep 14, 2026, 22:09 UTC

1 14208U 83075B   26257.92325429  .00009653  00000-0  22712-3 0  9996
2 14208  97.6118 270.2067 0017898 270.3941  89.5255 15.42027893359284

Śledź SL-3 R/B w czasie rzeczywistym z AllMySat

Download on the App Store